Location: Tarnowskie Gory
(50.4500°N, 18.8670°E)
Time: 16:07:15
(UTC+01:00)

ISS - Visible Passes

Search period start: 02 March 2021 00:00
Search period end: 12 March 2021 00:00
Orbit: 417 x 422 km, 51.6° (Epoch: 01 March)

Date Brightness Start Highest point End Pass type
(mag) Time Alt. Az. Time Alt. Az. Time Alt. Az.
02 Mar -3.0 04:08:11 53° ENE 04:08:11 53° ENE 04:10:52 10° ENE visible
02 Mar -3.6 05:41:08 11° W 05:44:25 74° N 05:47:47 10° E visible
03 Mar -0.8 03:22:30 17° ENE 03:22:30 17° ENE 03:23:23 10° ENE visible
03 Mar -3.7 04:55:28 31° WNW 04:56:55 69° N 05:00:16 10° E visible
04 Mar -3.4 04:09:47 62° NE 04:09:47 62° NE 04:12:46 10° E visible
04 Mar -3.7 05:42:57 10° WNW 05:46:19 82° SSW 05:49:41 10° ESE visible
05 Mar -1.1 03:24:07 20° ENE 03:24:07 20° ENE 03:25:16 10° ENE visible
05 Mar -3.8 04:57:05 26° WNW 04:58:50 83° NNE 05:02:13 10° E visible
06 Mar -3.7 04:11:26 73° NNE 04:11:26 73° NNE 04:14:42 10° E visible
06 Mar -3.3 05:44:51 10° W 05:48:06 47° SSW 05:51:21 10° SE visible
07 Mar -1.3 03:25:50 22° E 03:25:50 22° E 03:27:11 10° E visible
07 Mar -3.7 04:58:47 23° W 05:00:41 64° SSW 05:04:00 10° ESE visible
08 Mar -3.9 04:13:15 82° S 04:13:15 82° S 04:16:36 10° ESE visible
09 Mar -1.4 03:27:46 22° E 03:27:46 22° E 03:29:06 10° E visible
09 Mar -2.9 05:00:44 21° W 05:02:23 33° SSW 05:05:26 10° SE visible
10 Mar -3.2 04:15:21 44° S 04:15:21 44° S 04:18:14 10° SE visible
11 Mar -1.2 03:30:05 16° ESE 03:30:05 16° ESE 03:30:53 10° ESE visible
11 Mar -2.0 05:03:04 15° WSW 05:03:53 16° SW 05:06:05 10° S visible
